SCP
0 0 0 0 0 0 0 0 0 0 0 0 0 0 0 0 0 0 0 0 0 0 0 0 0 0 0 0 0 0 0 0 0 0 0 0 0 0 0 0 0 0 0
0 0 0 0 0 0 0 0 0 0 0 0 0 0 0 0 0 0 0 0 0 0 0 0 0 0 0 0 0 0 0 0 0 0 0 0 0 0 0 0 0 0 0
0 0 0 0 0 0 0 0 0 0 0 0 0 0 0 0 0 0 0 0 0 0 0 0 0 0 0 0 0 0 0 0 0 0 0 0 0 0 0 0 0 0 0
0 0 0 0 0 0 0 0 0 0 0 0 0 0 0 0 0 0 0 0 0 0 0 0 0 0 0 0 0 0 0 0 0 0 0 0 0 0 0 0 0 0 0
0 0 0 0 0 0 0 0 0 0 0 0 0 0 0 0 0 0 0 0 0 0 0 0 0 0 0 0 0 0 0 0 0 0 0 0 0 0 0 0 0 0 0
0 0 0 0 0 0 0 0 0 0 0 0 0 0 0 0 0 0 0 0 0 0 0 0 0 0 0 0 0 0 0 0 0 0 0 0 0 0 0 0 0 0 0
0 0 0 0 0 0 0 0 0 0 0 0 0 0 0 0 0 0 0 0 0 0 0 0 0 0 0 0 0 0 0 0 0 0 0 0 0 0 0 0 0 0 0
0 0 0 0 0 0 0 0 0 0 0 0 0 0 0 0 0 0 0 0 0 0 0 0 0 0 0 0 0 0 0 0 0 0 0 0 0 0 0 0 0 0 0
0 0 0 0 0 0 0 0 0 0 0 0 0 0 0 0 0 0 0 0 0 0 0 0 0 0 0 0 0 0 0 0 0 0 0 0 0 0 0 0 0 0 0
0 0 0 0 0 0 0 0 0 0 0 0 0 0 0 0 0 0 0 0 0 0 0 0 0 0 0 0 0 0 0 0 0 0 0 0 0 0 0 0 0 0 0
0 0 0 0 0 0 0 0 0 0 0 0 0 0 0 0 0 0 0 0 0 0 0 0 0 0 0 0 0 0 0 0 0 0 0 0 0 0 0 0 0 0 0
0 0 0 0 0 0 0 0 0 0 0 0 0 0 0 0 0 0 0 0 0 0 0 0 0 0 0 0 0 0 0 0 0 0 0 0 0 0 0 0 0 0 0
0 0 0 0 0 0 0 0 0 0 0 0 0 0 0 0 0 0 0 0 0 0 0 0 0 0 0 0 0 0 0 0 0 0 0 0 0 0 0 0 0 0 0
0 0 0 0 0 0 0 0 0 0 0 0 0 0 0 0 0 0 0 0 0 0 0 0 0 0 0 0 0 0 0 0 0 0 0 0 0 0 0 0 0 0 0
0 0 0 0 0 0 0 0 0 0 0 0 0 0 0 0 0 0 0 0 0 0 0 0 0 0 0 0 0 0 0 0 0 0 0 0 0 0 0 0 0 0 0
0 0 0 0 0 0 0 0 0 0 0 0 0 0 0 0 0 0 0 0 0 0 0 0 0 0 0 0 0 0 0 0 0 0 0 0 0 0 0 0 0 0 0
0 0 0 0 0 0 0 0 0 0 0 0 0 0 0 0 0 0 0 0 0 0 0 0 0 0 0 0 0 0 0 0 0 0 0 0 0 0 0 0 0 0 0
0 0 0 0 0 0 0 0 0 0 0 0 0 0 0 0 0 0 0 0 0 0 0 0 0 0 0 0 0 0 0 0 0 0 0 0 0 0 0 0 0 0 0
0 0 0 0 0 0 0 0 0 0 0 0 0 0 0 0 0 0 0 0 0 0 0 0 0 0 0 0 0 0 0 0 0 0 0 0 0 0 0 0 0 0 0
0 0 0 0 0 0 0 0 0 0 0 0 0 0 0 0 0 0 0 0 0 0 0 0 0 0 0 0 0 0 0 0 0 0 0 0 0 0 0 0 0 0 0
0 0 0 0 0 0 0 0 0 0 0 0 0 0 0 0 0 0 0 0 0 0 0 0 0 0 0 0 0 0 0 0 0 0 0 0 0 0 0 0 0 0 0
0 0 0 0 0 0 0 0 0 0 0 0 0 0 0 0 0 0 0 0 0 0 0 0 0 0 0 0 0 0 0 0 0 0 0 0 0 0 0 0 0 0 0
0 0 0 0 0 0 0 0 0 0 0 0 0 0 0 0 0 0 0 0 0 0 0 0 0 0 0 0 0 0 0 0 0 0 0 0 0 0 0 0 0 0 0
0 0 0 0 0 0 0 0 0 0 0 0 0 0 0 0 0 0 0 0 0 0 0 0 0 0 0 0 0 0 0 0 0 0 0 0 0 0 0 0 0 0 0
0 0 0 0 0 0 0 0 0 0 0 0 0 0 0 0 0 0 0 0 0 0 0 0 0 0 0 0 0 0 0 0 0 0 0 0 0 0 0 0 0 0 0
0 0 0 0 0 0 0 0 0 0 0 0 0 0 0 0 0 0 0 0 0 0 0 0 0 0 0 0 0 0 0 0 0 0 0 0 0 0 0 0 0 0 0
Wind_Speed
2 2 6 9 10 10 11 11 11 10 9 9 8 7 6 5 3 3 3 4 5 5 6 6 6 6 6 6 7 8 7 8 8 9 9 9 9 9 9 9 8 5 9
2 1 6 8 9 10 11 11 11 10 9 9 8 7 6 5 5 4 2 3 3 4 5 5 5 6 6 6 6 7 7 8 8 8 8 7 8 9 9 9 8 5 9
2 2 4 8 9 10 10 11 11 10 9 8 8 7 6 5 4 4 3 2 2 3 4 5 5 5 5 6 6 7 7 7 8 8 7 4 5 8 8 9 9 9 9
4 3 4 8 9 10 10 10 10 10 10 9 8 7 6 5 4 3 2 2 1 1 2 3 4 5 5 5 6 7 7 7 7 7 4 3 4 8 9 9 9 9 9
4 3 4 9 9 10 10 10 10 10 10 9 8 7 6 5 4 3 3 2 1 0 1 2 3 4 5 5 6 6 7 7 6 5 4 4 4 8 10 9 10 10 10
4 3 4 9 10 9 9 9 10 10 10 9 9 8 7 6 5 4 4 3 2 2 1 2 3 4 5 5 6 6 7 6 5 3 4 4 4 8 10 10 10 10 10
3 3 4 9 10 10 10 9 9 9 9 9 9 9 8 7 7 6 5 4 4 3 2 2 3 4 5 5 6 6 6 6 4 4 4 4 6 10 11 11 11 11 11
4 3 4 8 9 9 9 10 10 9 9 9 10 9 9 9 8 7 6 6 5 4 3 3 3 4 5 6 6 6 6 5 4 5 4 4 9 12 12 12 12 12 12
4 4 3 4 5 8 9 9 10 10 9 9 9 10 10 10 9 8 7 7 6 5 5 4 4 4 4 5 6 5 5 5 4 4 5 4 10 12 13 13 13 12 12
3 3 3 3 4 4 5 8 9 9 10 9 10 10 10 10 9 9 8 8 7 6 6 6 5 5 5 5 5 5 5 4 4 4 4 5 11 13 13 14 14 13 13
3 2 2 3 3 3 3 6 7 7 8 8 7 9 8 5 4 5 7 9 8 7 6 6 6 6 5 5 5 5 4 2 3 4 4 7 11 13 13 13 14 14 14
1 1 1 1 2 2 3 3 3 3 4 4 3 4 3 4 4 5 8 9 9 8 7 6 7 6 4 2 3 4 3 3 3 4 5 10 13 13 14 14 14 14 15
2 0 0 1 1 1 1 1 1 2 2 3 4 3 3 3 3 3 3 4 5 6 3 4 4 3 2 2 2 3 4 4 3 4 5 11 13 15 15 14 15 15 15
2 2 1 0 0 1 1 1 1 1 2 2 3 3 2 2 2 3 2 2 3 2 3 2 2 3 3 3 4 4 5 4 4 3 5 11 13 15 16 16 15 16 17
2 2 2 1 1 1 1 1 1 1 1 2 2 3 2 2 2 3 3 2 3 3 3 3 3 3 4 4 4 5 6 6 6 5 4 10 13 15 16 16 16 17 18
3 3 2 2 2 1 1 1 1 1 1 2 2 3 3 2 2 2 3 3 3 3 3 3 4 4 4 4 5 5 6 6 6 6 5 7 12 14 16 17 17 18 18
4 3 3 2 1 1 1 2 2 2 2 2 2 3 3 3 3 3 3 3 3 3 4 3 4 3 4 4 5 6 5 6 6 7 6 5 7 11 14 16 17 18 18
4 3 3 2 2 2 2 2 2 2 2 2 3 3 4 4 3 3 3 3 4 3 3 3 3 3 4 4 4 5 5 5 7 7 7 6 6 6 10 14 16 17 18
4 4 3 3 3 3 3 2 3 2 3 3 3 3 4 5 4 3 4 4 4 3 3 4 3 3 4 5 5 5 5 6 6 7 7 7 7 6 6 9 13 15 17
4 3 3 3 3 3 2 2 2 2 3 3 3 4 5 5 5 4 4 4 4 3 3 3 4 4 4 4 6 6 6 6 6 7 8 7 6 7 6 7 7 9 13
2 2 3 3 3 2 1 2 2 3 3 3 3 5 5 5 5 5 4 4 4 4 5 5 4 5 4 3 4 5 5 6 7 6 5 5 6 7 6 7 6 5 6
3 3 3 4 4 3 3 2 2 3 3 4 4 4 5 6 6 5 5 5 5 4 5 5 4 4 4 3 2 3 3 4 4 6 6 6 7 5 6 7 7 7 6
4 4 4 4 4 4 4 2 2 2 3 3 4 4 5 6 6 6 7 6 5 5 5 6 5 6 5 4 4 4 3 4 3 4 6 6 6 6 6 6 7 8 7
5 4 4 4 5 5 4 3 3 3 4 5 4 5 6 6 7 7 7 7 7 6 6 7 6 6 6 6 5 5 5 4 3 3 3 5 6 7 7 6 7 8 8
4 4 4 4 4 4 4 4 4 5 5 4 4 6 6 6 7 7 7 7 7 6 7 8 7 7 6 7 6 4 5 5 5 5 6 5 5 6 7 7 7 7 8
3 3 3 4 5 5 4 4 5 6 7 7 7 6 6 5 6 7 7 7 7 7 7 8 8 9 8 9 7 6 5 5 5 5 6 6 6 5 6 6 7 7 7
Wind_Direction
305 307 32 36 37 39 38 39 40 40 43 47 51 55 63 73 89 110 124 137 143 146 149 153 158 158 150 146 144 143 140 142 141 137 136 136 134 130 128 126 122 114 122
201 357 44 42 39 38 38 38 37 37 39 39 43 47 51 59 67 80 102 136 149 158 164 164 166 168 164 157 157 155 150 150 146 142 141 142 140 137 135 136 134 136 132
100 58 48 46 42 38 36 36 36 34 34 35 35 36 39 44 52 61 66 102 145 164 170 173 174 172 168 166 164 164 162 159 155 151 146 143 148 148 147 146 146 141 137
95 65 51 49 44 40 37 35 34 33 30 27 28 27 25 26 32 39 42 54 89 178 185 186 184 175 170 168 172 173 172 169 166 159 152 160 168 164 160 157 156 151 147
77 57 46 50 45 40 35 33 31 29 26 23 21 22 17 14 12 17 14 6 360 323 208 204 197 184 180 180 178 179 177 175 173 168 166 173 180 177 172 167 164 160 156
69 47 42 48 41 36 33 29 27 24 21 19 18 16 13 7 5 360 358 352 334 306 272 222 211 199 193 191 190 189 186 180 174 174 176 182 185 185 181 174 169 167 165
73 52 42 44 38 33 28 26 24 21 18 17 15 12 8 4 360 354 349 345 335 309 274 252 232 220 209 203 201 201 200 191 176 177 187 190 193 193 191 184 178 175 172
88 62 49 42 35 28 24 24 22 18 17 15 12 10 8 2 356 349 343 338 330 317 294 265 254 242 228 214 209 211 208 200 188 189 194 195 199 199 195 190 187 185 181
84 71 47 33 27 23 20 20 19 14 11 10 8 7 5 2 356 349 342 339 331 323 310 291 268 257 243 229 218 216 213 207 194 197 201 200 205 206 202 196 194 192 190
75 68 49 32 26 14 7 13 13 11 8 6 5 4 3 358 351 348 342 337 331 327 319 306 284 270 253 247 233 225 221 206 206 208 206 209 208 209 208 204 200 198 198
62 53 49 34 21 9 5 11 6 6 6 3 358 358 356 346 338 339 340 339 334 328 321 314 298 288 268 254 246 232 218 214 214 216 210 216 214 214 213 211 206 203 203
69 35 57 47 22 10 6 1 348 351 349 347 342 343 343 339 336 341 338 336 334 330 323 316 311 299 280 258 251 233 219 223 217 222 221 220 221 221 221 216 210 208 207
181 163 48 67 23 9 350 342 341 337 336 337 339 339 338 335 332 333 328 327 324 327 316 312 307 298 277 261 252 241 226 222 226 229 229 226 228 227 225 219 216 212 211
174 197 216 160 344 319 327 317 317 327 329 330 328 331 334 329 328 321 315 309 309 309 305 301 295 294 275 263 248 243 233 224 226 230 233 230 231 232 229 223 220 218 215
183 199 211 206 229 282 321 304 331 297 299 306 313 317 314 308 304 307 305 299 296 297 289 291 286 288 280 268 260 252 245 232 227 228 236 234 234 233 231 228 226 223 221
200 211 219 224 230 233 279 285 279 277 281 295 302 298 298 288 286 291 303 300 292 290 279 266 271 273 270 267 264 256 250 241 232 231 234 235 236 235 234 233 232 230 227
204 214 229 235 238 247 267 269 279 271 277 281 283 292 290 281 276 276 283 292 292 291 292 281 275 268 273 268 266 260 254 245 242 236 234 232 235 237 237 235 235 235 232
193 210 237 255 266 261 258 265 264 264 265 269 273 279 283 278 272 270 272 278 282 283 284 285 273 274 274 269 266 263 257 250 243 237 234 231 231 235 236 239 238 239 238
194 204 227 241 246 256 262 263 260 263 264 267 271 273 277 280 272 263 262 270 280 278 273 285 281 261 271 278 270 263 259 249 244 237 231 230 230 233 232 236 237 241 240
198 205 222 238 243 252 270 284 287 282 275 270 265 266 271 277 277 266 264 263 265 266 268 271 278 271 258 269 278 271 262 255 243 234 228 227 227 230 234 236 231 236 240
204 219 230 241 255 256 280 283 286 283 281 279 267 263 265 267 270 264 267 260 256 253 255 260 269 272 268 266 279 282 272 254 243 234 224 220 223 226 231 235 234 232 237
214 226 234 237 247 246 244 248 248 262 268 268 271 271 262 262 266 272 261 257 254 257 259 255 258 261 267 248 246 277 292 284 248 236 225 222 221 222 229 235 235 232 234
223 226 235 242 247 252 252 263 290 302 300 291 281 271 266 263 262 262 260 254 250 248 251 252 244 250 256 252 223 225 237 254 293 248 226 225 222 223 225 229 232 233 235
231 232 237 246 251 255 251 245 254 271 275 272 273 270 274 266 262 259 257 252 250 247 248 249 245 245 241 251 247 234 235 230 249 282 256 231 229 229 226 230 230 232 231
231 232 242 249 256 258 251 242 248 262 266 275 282 278 275 270 264 260 257 251 248 247 248 247 247 246 237 239 246 247 251 247 233 244 266 255 245 232 227 225 227 230 231
242 241 244 250 263 265 260 256 251 260 270 280 282 280 277 271 265 261 262 254 249 247 247 246 244 244 243 241 244 240 237 240 233 232 249 250 252 250 238 229 227 229 229